Simultaneous Nadir Overpasses (SNOs) Predictions

Prediction of SNOs between FY3D and TERRA Satellite Orbit:

Table of predicted SNOs for the next 14.0 days since TLE Epoch: 5/21/2022
Index Date (FY3D) Time (FY3D) Lat,Lon (FY3D) SZA (FY3D ) Date (TERRA) Time (TERRA) Lat,Lon (TERRA) SZA (TERRA ) Distance(km) Time Diff (sec)
1 05/23/2022 19:07:29 -71.41, 72.98 129.39 05/23/2022 19:08:08 -71.42, 72.89 129.37 3.34 39
2 05/23/2022 19:58:14 71.35,-119.61 50.55 05/23/2022 19:57:35 71.32,-119.63 50.52 3.53 39
3 05/26/2022 10:34:35 71.41, 21.22 50.15 05/26/2022 10:35:01 71.41, 21.14 50.14 3.06 26
4 05/26/2022 11:25:19 -71.34,-171.35 129.93 05/26/2022 11:24:30 -71.34,-171.33 129.93 0.58 49
5 05/29/2022 01:11:09 72.15, 160.79 50.46 05/29/2022 01:12:17 72.01, 162.77 50.33 69.23 68
6 05/29/2022 02:01:40 -71.41, -30.53 130.29 05/29/2022 02:01:56 -71.41, -30.61 130.29 2.91 16
7 05/29/2022 02:52:25 71.35, 136.88 49.65 05/29/2022 02:51:22 71.36, 136.95 49.65 2.30 63
8 05/31/2022 16:38:06 -71.79, 109.72 130.29 05/31/2022 16:39:17 -71.67, 110.43 130.41 28.23 71
9 05/31/2022 17:28:45 71.43, -82.30 49.34 05/31/2022 17:28:46 71.45, -82.29 49.36 2.40 1
10 05/31/2022 18:19:29 -71.36, 85.13 130.73 05/31/2022 18:18:16 -71.34, 85.17 130.76 3.10 73
11 06/03/2022 08:05:06 71.50, 58.50 49.08 06/03/2022 08:06:11 71.51, 58.44 49.09 2.30 65
12 06/03/2022 08:55:50 -71.44,-134.07 131.00 06/03/2022 08:55:40 -71.46,-134.02 130.98 2.71 10



Historial Predications of SNOs between FY3D and TERRA
